Other Surface Observations
Issued by NWS

Home | Current Version | Previous Version | Text Only | Print | Product List | Glossary On
Versions: 1 2 3 4 5 6 7 8 9 10 11 12 13 14 15 16 17 18 19 20 21 22 23 24 25 26 27 28 29 30 31 32 33 34 35 36 37 38 39 40 41 42 43 44 45 46 47 48 49 50
000
SXUS52 KTAE 220718
OSOTAE
OSOTAE
North Florida/South Alabama/Southwest Georgia Weather Roundup
National Weather Service Tallahassee Florida
200 AM EST THU FEB 22 2018

Note: "fair" indicates few or no clouds below 12,000 feet with no
significant weather and/or obstructions to visibility.

!FLZ017-115-028-034-025-220800
...North Florida...

CITY           SKY/WX    TMP DP  RH WIND       PRES   REMARKS
TALLAHASSEE    MOCLDY    61  60  97 CALM      30.37S
APALACHICOLA   MOCLDY    67  67 100 E7        30.35R
PERRY          FAIR      68  64  86 CALM      30.38S
CROSS CITY     FAIR      67  67  97 CALM      30.42S
JACKSONVILLE   FAIR      68  66  93 SE7       30.40S
$$

!FLZ112-006-005-002-011-220800
...Florida Panhandle...

CITY           SKY/WX    TMP DP  RH WIND       PRES   REMARKS
MARIANNA       FAIR      65  63  93 E3        30.35S
BONIFAY        NOT AVBL
PANAMA CITY NW FAIR      65  64  97 CALM      30.33F
TYNDALL AFB    FAIR      67  67 100 NE3       30.35S
TYND DRONE APT PTSUNNY   66  66  98 CALM      30.35S
DE FUNIAK SPR  FOG       64  64  99 CALM      30.35R VSB 1/4
EGLIN AFB      FOG       69  69 100 SE5       30.32S VSB 7/8
DESTIN         FOG       70  66  87 SE6       30.33S VSB 1/2
HURLBURT       FOG       68  68 100 CALM      30.31S VSB 1/8
CRESTVIEW      FAIR      63  62  97 CALM      30.34S FOG
PENSACOLA      CLOUDY    71  69  93 SE6       30.33S
$$

!ALZ063-066-220800
...South Alabama...

CITY           SKY/WX    TMP DP  RH WIND       PRES   REMARKS
DOTHAN         FAIR      64  62  93 SE3       30.38S FOG
OZARK CAIRNS   FOG       64  64 100 CALM      30.34S VSB 1
FT RUCKER HELI FAIR      62  62  99 CALM      30.34S
RUCKER HELI 3    N/A    N/A N/A N/A MISG        N/A
RUCKER HELI 2  FAIR      65  65  97 CALM      30.34S
FLORALA APT    NOT AVBL
ANDALUSIA      MOCLDY    67  64  90 W3        30.34R
TROY           FOG       62  62 100 CALM      30.36S VSB 1/2
EUFALA         FAIR      62  61  96 CALM      30.35R FOG
MOBILE         CLOUDY    72  70  93 S14       30.32S
$$

!GAZ120>161-220800
...Southwest and South Central Georgia...

CITY           SKY/WX    TMP DP  RH WIND       PRES   REMARKS
THOMASVILLE    FAIR     N/A N/A N/A CALM      30.39F
BAINBRIDGE     CLOUDY    66  66 100 CALM      30.38S
MOODY AFB      FAIR      65  64  98 SE3       30.38F
VALDOSTA       FAIR      63  62  97 CALM      30.39S
MOULTRIE       FAIR      68  64  88 CALM      30.39S
BLAKELY        FAIR      63  59  88 CALM      30.37S
ALBANY         FAIR      65  63  93 CALM      30.40S
TIFTON         FAIR      66  66 100 SE3       30.39F
FITZGERALD     FAIR      67  67 100 CALM      30.43R
CORDELE        PTSUNNY   74  66  76 SE7       30.40S
AMERICUS       FAIR      64  59  82 SE3       30.40S
HOMERVILLE     FAIR      64  64 100 SE3       30.41S
$$

!GMZ750-755-770-775-220800
...Coastal and Buoy Obs...

STATION/POSITION TIME  TEMP    WIND        PRES    VSBY  WAVE
                       AIR SEA DIR/SP/G                  HT/PER
                 (UTC) (F)     (DEG/KT/KT) (MB)    (MI)  (FT/S)
KEATON BEACH     0700   69      70/  6/  7 1028.6F
CEDAR KEY        0700   72     130/ 14/ 18 1028.5F
C TOWER          0700   67     100/ 13/ 13 1028.1R
APALACHICOLA BUO NOT AVBL
PANAMA CITY BUOY 0650   73 72  140/  6/  6 1026.2S         4/ 7
MOBILE BUOY      0700          130/ 10/ 14 1026.1
ORANGE BCH AL BU NOT AVBL
$$




USA.gov is the U.S. government's official web portal to all federal, state and local government web resources and services.